This is the latest recevied weather packets stored in our database for station/object F4NFR-13. If no packets are shown the sender has not sent any weather packets the latest 10 day(s).
| Time | Temp. | Humidity | Pressure | Rain* | Wind** | Luminosity | Snow |
|---|---|---|---|---|---|---|---|
| 1778166512 | 15° C | 61% | 1017.8 hPa | 0 mm | - | 0 W/m² | - |
| 1778166210 | 15° C | 62% | 1017.8 hPa | 0 mm | - | 46 W/m² | - |
| 1778165907 | 15° C | 65% | 1017.8 hPa | 0 mm | - | - | - |
| 1778165605 | 15° C | 64% | 1017.8 hPa | 0 mm | - | 0 W/m² | - |
| 1778165302 | 15° C | 65% | 1017.8 hPa | 0 mm | - | 0 W/m² | - |
| 1778165000 | 15° C | 63% | 1017.8 hPa | 0 mm | - | 0 W/m² | - |
| 1778164698 | 15° C | 65% | 1018.1 hPa | 0 mm | - | 0 W/m² | - |
| 1778164396 | 13.89° C | 65% | 1018.1 hPa | 0 mm | - | 0 W/m² | - |
| 1778164093 | 13.89° C | 64% | 1018.1 hPa | 0 mm | - | 0 W/m² | - |
| 1778163489 | 13.89° C | 63% | 1018.1 hPa | 0 mm | - | 0 W/m² | - |
| 1778163186 | 13.89° C | 65% | 1018.1 hPa | 0 mm | - | 293 W/m² | - |
| 1778162883 | 13.89° C | 64% | 1018.1 hPa | 0 mm | - | 283 W/m² | - |
| 1778162581 | 13.89° C | 60% | 1018.1 hPa | 0 mm | - | 280 W/m² | - |
| 1778162278 | 13.89° C | 60% | 1018.1 hPa | 0 mm | - | 294 W/m² | - |
| 1778161976 | 13.89° C | 61% | 1018.1 hPa | 0 mm | - | 310 W/m² | - |
| 1778161673 | 13.89° C | 62% | 1018.4 hPa | 0 mm | - | 0 W/m² | - |
| 1778161371 | 13.89° C | 61% | 1018.4 hPa | 0 mm | - | 0 W/m² | - |
| 1778161068 | 13.89° C | 60% | 1018.4 hPa | 0 mm | - | 0 W/m² | - |
| 1778160766 | 13.89° C | 61% | 1018.4 hPa | 0 mm | - | 0 W/m² | - |
| 1778160463 | 13.89° C | 62% | 1018.4 hPa | 0 mm | - | 0 W/m² | - |
| 1778160161 | 13.89° C | 61% | 1018.4 hPa | 0 mm | - | 0 W/m² | - |
| 1778159858 | 13.89° C | 61% | 1018.1 hPa | 0 mm | - | 0 W/m² | - |
| 1778159556 | 13.89° C | 64% | 1018.4 hPa | 0 mm | - | 0 W/m² | - |
| 1778159254 | 13.89° C | 64% | 1018.4 hPa | 0 mm | - | 0 W/m² | - |
| 1778158951 | 13.89° C | 64% | 1018.4 hPa | 0 mm | - | 0 W/m² | - |
* Rain latest hour (hover to see other rain measurements)
** Current wind speed in m/s (hover to see current wind gust speed)